SCP
0 0 0 0 0 0 0 0 0 0 0 0 0 0 0 0 0 0 -0 0 -0 0 0 0 0 0 0 0 0 0 0 0 0 0 0 0 0 0 0 0 0 0 0 0
0 0 0 0 0 0 0 0 0 0 0 0 0 0 0 0 0 0 0 0 0 0 0 0 0 0 0 0 0 0 0 0 0 0 0 0 0 0 0 0 0 0 0 0
0 0 0 0 0 0 0 0 0 0 0 0 0 0 0 0 0 0 0 0 0 0 0 0 0 0 0 0 0 0 0 0 0 0 0 0 0 0 0 0 0 0 0 0
0 0 0 0 0 0 0 0 0 0 0 0 0 0 0 0 0 0 0 0 0 0 0 0 0 0 0 0 0 0 0 0 0 0 0 0 0 0 0 0 0 0 0 0
0 0 0 0 0 0 0 0 0 0 0 0 0 0 0 0 0 0 0 0 0 0 0 0 0 0 0 0 0 0 0 0 0 0 0 0 0 0 0 0 0 0 0 0
0 0 0 0 0 0 0 0 0 0 0 0 0 0 0 0 0 0 0 0 0 0 0 0 0 0 0 0 0 0 0 0 0 0 0 0 0 0 0 0 0 0 0 0
0 0 0 0 0 0 0 0 0 0 0 0 0 0 0 0 0 0 0 0 0 0 0 0 0 0 0 0 0 0 0 0 0 0 0 0 0 0 0 0 0 0 0 0
0 0 0 0 0 0 0 0 0 0 0 0 0 0 0 0 0 0 0 0 0 0 0 0 0 0 0 0 0 0 0 0 0 0 0 0 0 0 0 0 0 0 0 0
0 0 0 0 0 0 0 0 0 0 0 0 0 0 0 0 0 0 0 0 0 0 0 0 0 0 0 0 0 0 0 0 0 0 0 0 0 0 0 0 0 0 0 0
0 0 0 0 0 0 0 0 0 0 0 0 0 0 0 0 0 0 0 0 0 0 0 0 0 0 0 0 0 0 0 0 0 0 0 0 0 0 0 0 0 0 0 0
0 0 0 0 0 0 0 0 0 0 0 0 0 0 0 0 0 0 0 0 0 0 0 0 0 0 0 0 0 0 0 0 0 0 0 0 0 0 0 0 0 0 0 0
0 0 0 0 0 0 0 0 0 0 0 0 0 0 0 0 0 0 0 0 0 0 0 0 0 0 0 0 0 0 0 0 0 0 0 0 0 0 0 0 0 0 0 0
0 0 0 0 0 0 0 0 0 0 0 0 0 0 0 0 0 0 0 0 0 0 0 0 0 0 0 0 0 0 0 0 0 0 0 0 0 0 0 0 0 0 0 0
0 0 0 0 0 0 0 0 0 0 0 0 0 0 0 0 0 0 0 0 0 0 0 0 0 0 0 0 0 0 0 0 0 0 0 0 0 0 0 0 0 0 0 0
0 0 0 0 0 0 0 0 0 0 0 0 0 0 0 0 0 0 0 0 0 0 0 0 0 0 0 0 0 0 0 0 0 0 0 0 0 0 0 0 0 0 0 0
0 0 0 0 0 0 0 0 -0 0 0 0 0 0 0 0 0 0 0 0 0 0 0 0 0 0 0 0 0 0 0 0 0 0 0 0 0 0 0 0 0 0 0 0
0 0 0 -0 -0 -0 -0 -0 0 -0 -0 -0 0 0 0 0 0 0 0 0 0 0 0 0 0 0 0 0 0 0 0 0 0 0 0 0 0 0 0 0 0 0 0 0
-0 -0 -0 -0 -0 -0 -0 -0 0 0 0 0 0 0 0 0 0 0 0 -0 0 0 0 0 0 0 0 0 0 0 0 0 0 0 0 0 0 0 0 0 0 0 0 0
-0 -0 -0 -0 -0 -0 -0 0 0 0 0 0 0 0 0 0 0 0 0 0 0 0 -0 0 0 0 0 0 0 0 0 0 0 0 0 0 0 0 0 0 0 0 0 0
-0 -0 -0 -0 0 0 -0 0 0 0 0 0 0 0 0 0 0 0 0 0 0 0 0 0 0 0 0 0 0 0 0 0 0 0 0 0 0 0 0 0 0 0 0 0
-0 -0 -0 -0 -0 -0 -0 -0 -0 0 0 0 0 0 0 0 0 0 0 0 0 0 0 0 0 0 0 0 0 0 0 0 0 0 0 0 0 0 0 0 0 0 0 0
-0 -0 -0 -0 -0 0 0 -0 -0 0 0 0 0 0 0 0 0 0 0 0 0 0 0 0 0 0 0 0 0 0 0 0 0 0 0 0 0 0 0 0 0 0 0 0
-0 -0 -0 0 0 0 0 0 0 0 0 0 0 0 0 0 0 0 0 0 0 0 0 0 0 0 0 0 0 0 0 0 0 0 0 0 0 0 0 0 0 0 0 0
0 0 0 0 0 0 0 0 0 0 0 0 0 0 0 0 0 0 0 0 0 0 0 0 0 0 0 0 0 0 0 0 0 0 0 0 0 0 0 0 0 0 0 0
0 0 0 0 0 0 0 0 0 0 0 0 0 0 0 0 0 0 0 0 0 0 0 0 0 0 0 0 0 0 0 0 0 0 0 0 0 0 0 0 0 0 0 0
0 0 0 0 0 0 0 0 0 0 0 0 0 0 0 0 0 0 0 0 0 0 0 0 0 0 0 0 0 0 0 0 0 0 0 0 0 0 0 0 0 0 0 0
0 0 0 0 0 0 0 0 0 0 0 0 0 0 0 0 0 0 0 0 0 0 0 0 0 0 0 0 0 0 0 0 0 0 0 0 0 0 0 0 0 0 0 0
Wind_Speed_500mb
5 4 4 9 20 30 28 22 15 14 18 15 14 14 26 24 23 29 26 25 27 33 34 34 33 38 48 53 50 47 43 40 37 36 35 34 32 30 27 24 21 19 16 14
6 4 1 7 15 18 19 15 14 7 21 13 28 28 38 44 33 30 32 31 34 33 36 33 31 34 37 44 51 50 46 42 38 35 33 32 30 28 26 23 22 19 16 13
5 7 8 15 14 14 10 9 22 29 31 14 17 30 34 34 27 29 28 30 29 24 23 21 27 34 43 41 42 49 47 42 38 34 32 31 29 28 26 23 20 18 15 9
4 4 8 10 5 10 18 14 22 11 10 27 38 40 32 33 30 26 22 15 24 24 27 23 25 28 32 33 35 42 44 41 37 35 34 33 31 28 26 23 21 18 20 14
9 8 9 9 9 15 16 25 30 25 32 34 35 24 42 37 26 19 17 19 25 29 31 35 35 36 36 36 36 38 41 39 37 36 35 33 32 29 26 25 29 21 17 20
6 10 16 12 11 22 17 16 25 35 29 31 21 6 16 22 19 20 22 24 33 44 44 49 43 42 41 39 39 40 39 37 35 34 32 31 29 29 30 27 22 17 18 21
6 7 15 16 11 29 11 13 28 42 46 34 15 34 17 16 25 26 29 38 42 44 45 44 44 42 40 38 38 34 34 33 33 32 31 32 32 32 28 26 20 18 18 16
6 5 26 29 13 23 18 15 21 26 40 45 45 33 34 32 30 32 45 46 44 44 45 44 45 42 39 36 34 33 32 33 33 32 33 32 32 33 30 24 23 21 21 16
21 16 5 56 36 64 39 33 44 45 35 29 38 42 38 36 44 56 56 49 44 45 46 46 45 41 39 35 35 35 36 34 33 32 32 33 34 33 31 29 27 24 18 16
9 18 23 49 56 53 62 70 66 60 44 40 45 44 53 63 66 65 55 42 44 47 48 50 47 43 40 39 38 37 36 35 35 35 37 39 37 32 30 28 23 20 19 17
11 17 7 30 59 70 65 59 59 50 46 51 53 72 68 61 62 58 46 50 51 51 53 52 49 47 44 42 40 39 38 38 40 41 41 39 35 31 28 25 22 19 16 15
15 39 32 44 50 51 61 62 59 59 64 67 66 69 71 70 69 56 57 55 55 57 58 55 52 50 46 44 43 42 45 46 46 45 44 40 37 35 31 26 23 21 19 14
14 9 24 42 50 54 54 65 67 66 72 77 78 74 70 67 62 63 59 57 59 59 56 54 53 50 48 46 45 46 47 49 48 46 42 40 38 32 28 26 23 18 14 13
56 62 57 76 71 76 64 57 61 70 66 62 67 65 63 63 65 61 58 55 53 53 53 52 51 49 47 46 48 50 48 45 44 40 39 37 32 29 28 22 17 15 17 18
84 78 81 89 84 85 84 88 92 89 78 71 68 66 65 64 60 55 54 53 48 47 47 47 48 49 49 51 53 52 51 46 43 41 39 35 33 31 26 23 22 20 20 21
72 64 63 63 80 83 80 82 85 83 80 81 76 71 63 56 53 53 49 44 45 46 44 44 46 49 53 54 54 53 49 46 44 41 38 36 33 30 27 24 22 21 22 25
66 65 69 74 81 86 88 86 85 85 85 83 75 62 57 53 49 47 40 38 38 37 35 40 46 53 54 54 52 51 50 48 44 42 39 35 31 28 27 25 23 25 27 31
69 73 76 76 80 75 79 75 70 66 68 65 64 55 55 53 49 40 34 34 35 37 42 47 51 53 53 51 51 51 48 44 42 39 37 33 29 29 28 27 30 30 31 33
53 59 63 68 72 76 76 77 70 61 57 54 53 55 51 45 40 34 35 39 44 49 54 55 55 53 52 53 53 51 49 47 44 39 35 34 33 31 31 34 33 33 35 38
34 41 44 48 51 55 57 53 51 48 45 43 44 48 50 47 42 42 44 47 49 49 52 56 58 57 55 54 53 50 47 43 39 37 36 35 35 35 37 39 38 38 39 41
29 33 36 40 37 38 37 35 35 37 37 40 43 44 43 42 44 46 51 54 52 51 52 54 55 56 56 55 52 49 46 42 40 38 37 36 38 41 43 42 41 41 42 43
32 30 29 33 29 31 32 31 33 33 35 37 38 39 42 47 51 53 52 49 51 55 57 58 58 57 54 52 51 48 45 42 41 42 42 43 44 44 43 44 45 44 44 44
29 29 25 25 27 29 32 31 27 27 32 36 38 43 49 51 54 59 61 58 59 59 59 58 58 59 57 56 52 48 46 46 45 44 44 45 45 45 46 46 46 47 47 46
31 31 28 26 28 34 34 29 31 31 34 37 39 43 49 54 56 56 53 52 57 60 61 59 61 62 60 57 53 51 49 49 47 46 46 47 48 49 50 49 48 47 48 48
36 34 30 28 31 28 28 32 36 38 40 45 49 51 52 53 52 49 51 52 56 61 62 63 65 65 63 58 55 53 51 49 47 47 49 51 50 51 51 52 51 49 49 49
45 38 33 28 29 34 35 40 39 38 45 50 54 56 56 55 55 54 54 57 60 63 65 67 69 67 63 60 57 54 52 50 51 52 53 54 54 55 55 54 53 51 51 50
56 50 37 35 38 41 42 45 46 44 45 50 51 52 54 57 58 58 61 62 65 64 65 68 69 67 64 62 60 57 55 55 56 56 56 58 59 59 57 55 54 53 53 53
Wind_Direction_500mb
272 209 193 176 179 200 210 208 205 176 201 225 234 220 201 246 275 295 308 309 315 317 316 315 303 287 274 268 266 268 270 272 271 269 267 264 261 258 255 252 249 246 251 260
221 318 98 224 217 207 219 228 256 240 256 218 243 260 266 269 289 297 306 310 314 309 309 318 312 304 295 278 267 265 266 265 265 265 263 259 254 251 249 244 239 237 228 229
242 353 22 278 210 196 188 187 223 231 242 211 226 238 250 267 273 293 298 302 307 314 312 316 313 305 303 291 270 260 258 259 259 258 255 251 246 243 240 237 233 222 216 228
173 50 256 258 335 198 198 203 210 215 203 212 230 249 268 263 272 278 274 276 303 301 298 305 303 319 299 283 271 257 251 250 252 252 249 245 242 238 234 227 214 206 245 242
156 196 300 284 199 164 172 241 221 217 234 238 248 264 266 257 261 249 274 291 300 299 287 298 293 300 305 281 267 253 247 246 247 247 245 242 236 230 224 222 239 226 219 249
110 152 218 236 214 160 98 261 237 208 224 227 164 216 254 262 244 248 271 279 292 296 286 293 289 286 285 266 252 243 239 241 244 247 245 240 231 222 230 228 222 207 210 222
169 210 281 236 192 143 138 235 234 223 230 212 193 233 242 224 244 256 274 286 288 284 282 286 284 278 271 257 244 238 237 240 242 240 233 229 230 227 213 207 211 212 216 229
95 83 261 172 135 171 198 187 210 215 226 234 242 244 248 253 248 273 290 283 279 280 282 281 278 272 261 247 237 233 234 236 235 231 232 225 217 209 199 199 205 215 223 223
187 211 189 184 200 211 229 221 225 235 239 246 257 254 263 263 280 292 287 272 274 277 276 276 273 266 255 242 232 230 229 229 229 224 215 208 203 200 199 205 213 214 217 229
99 242 212 207 214 226 232 240 249 255 263 269 263 264 281 291 290 286 276 268 278 272 271 269 265 255 244 236 232 229 226 227 217 207 201 197 196 201 208 213 213 216 225 231
261 272 341 252 232 233 235 245 251 256 267 269 277 287 286 289 285 281 269 281 275 270 268 264 257 248 240 235 231 225 222 212 203 197 195 195 198 207 208 208 211 221 232 235
226 222 213 246 250 247 243 249 255 265 271 274 278 281 283 284 283 264 275 279 273 268 261 255 247 240 235 230 225 220 208 200 196 193 192 196 203 201 201 206 218 226 229 230
236 213 251 272 280 274 270 271 273 276 278 278 280 280 278 277 266 270 275 274 272 265 255 246 239 233 230 223 214 205 201 195 192 193 196 200 201 204 210 212 221 232 248 258
264 266 266 265 268 274 274 282 286 285 277 271 277 275 275 267 268 269 272 276 270 257 244 237 232 228 220 210 200 195 193 194 195 196 197 199 200 205 212 220 234 241 251 262
266 263 263 271 274 275 279 283 283 281 281 278 279 276 271 270 269 270 273 271 259 244 234 229 224 216 207 197 192 190 189 192 192 194 197 199 204 209 216 224 233 243 258 272
274 275 275 267 275 279 278 277 274 278 281 282 278 273 272 266 265 268 269 258 242 236 231 222 215 204 194 190 189 189 191 192 195 198 201 205 209 214 220 229 241 254 264 273
273 273 267 266 270 276 276 277 278 278 280 279 279 272 261 258 260 263 255 240 231 227 223 212 193 188 189 189 191 190 191 192 196 201 205 209 213 221 229 237 248 257 264 271
271 273 277 275 275 275 278 278 279 278 275 274 269 259 250 250 260 255 240 225 213 198 187 181 184 187 188 190 189 192 195 199 203 205 208 214 222 230 237 244 250 257 265 272
273 273 274 274 272 271 270 271 272 271 263 259 253 247 246 248 243 231 214 202 192 187 181 180 185 187 189 189 192 195 199 203 206 209 216 223 230 238 244 249 255 263 268 272
274 272 271 270 267 267 266 264 262 259 255 249 242 234 231 225 217 208 202 198 193 190 188 188 187 187 189 194 197 201 205 209 213 218 226 232 238 244 248 253 259 264 269 273
300 294 290 285 277 264 255 247 244 246 246 242 236 231 223 213 207 203 199 196 192 192 195 195 194 194 195 198 202 206 210 214 220 228 235 241 244 247 252 256 260 265 269 273
313 308 295 286 274 263 246 239 239 235 238 235 224 213 210 207 205 204 205 204 197 197 198 197 198 199 202 205 209 213 217 222 228 232 237 243 248 251 255 258 262 266 270 273
315 314 306 291 272 262 260 261 252 242 234 227 218 213 210 211 209 206 205 200 201 203 204 202 202 204 206 211 214 219 223 229 234 239 243 248 251 254 256 259 263 266 268 272
315 319 313 296 281 272 267 266 257 245 230 220 218 215 216 211 211 214 218 213 209 207 207 207 206 209 214 218 220 225 229 235 239 242 246 250 252 255 258 262 264 265 267 270
285 293 300 299 292 290 274 257 250 243 233 222 212 211 214 215 220 221 218 214 214 215 214 210 211 214 218 222 226 230 235 239 244 247 249 252 255 258 260 262 265 267 268 269
278 279 283 290 301 292 276 264 255 246 237 227 220 216 214 215 216 216 216 218 219 218 217 216 217 219 223 227 231 235 239 243 246 250 252 255 258 260 262 263 265 267 269 271
279 274 278 291 300 295 285 274 264 253 241 232 229 226 225 223 221 220 219 219 220 221 220 220 222 226 228 232 235 239 242 246 248 252 255 257 259 261 263 265 267 267 268 270
Wind_Speed_850mb
5 4 4 9 20 30 28 22 15 14 18 15 14 14 26 24 23 29 26 25 27 33 34 34 33 38 48 53 50 47 43 40 37 36 35 34 32 30 27 24 21 19 16 14
6 4 1 7 15 18 19 15 14 7 21 13 28 28 38 44 33 30 32 31 34 33 36 33 31 34 37 44 51 50 46 42 38 35 33 32 30 28 26 23 22 19 16 13
5 7 8 15 14 14 10 9 22 29 31 14 17 30 34 34 27 29 28 30 29 24 23 21 27 34 43 41 42 49 47 42 38 34 32 31 29 28 26 23 20 18 15 9
4 4 8 10 5 10 18 14 22 11 10 27 38 40 32 33 30 26 22 15 24 24 27 23 25 28 32 33 35 42 44 41 37 35 34 33 31 28 26 23 21 18 20 14
9 8 9 9 9 15 16 25 30 25 32 34 35 24 42 37 26 19 17 19 25 29 31 35 35 36 36 36 36 38 41 39 37 36 35 33 32 29 26 25 29 21 17 20
6 10 16 12 11 22 17 16 25 35 29 31 21 6 16 22 19 20 22 24 33 44 44 49 43 42 41 39 39 40 39 37 35 34 32 31 29 29 30 27 22 17 18 21
6 7 15 16 11 29 11 13 28 42 46 34 15 34 17 16 25 26 29 38 42 44 45 44 44 42 40 38 38 34 34 33 33 32 31 32 32 32 28 26 20 18 18 16
6 5 26 29 13 23 18 15 21 26 40 45 45 33 34 32 30 32 45 46 44 44 45 44 45 42 39 36 34 33 32 33 33 32 33 32 32 33 30 24 23 21 21 16
21 16 5 56 36 64 39 33 44 45 35 29 38 42 38 36 44 56 56 49 44 45 46 46 45 41 39 35 35 35 36 34 33 32 32 33 34 33 31 29 27 24 18 16
9 18 23 49 56 53 62 70 66 60 44 40 45 44 53 63 66 65 55 42 44 47 48 50 47 43 40 39 38 37 36 35 35 35 37 39 37 32 30 28 23 20 19 17
11 17 7 30 59 70 65 59 59 50 46 51 53 72 68 61 62 58 46 50 51 51 53 52 49 47 44 42 40 39 38 38 40 41 41 39 35 31 28 25 22 19 16 15
15 39 32 44 50 51 61 62 59 59 64 67 66 69 71 70 69 56 57 55 55 57 58 55 52 50 46 44 43 42 45 46 46 45 44 40 37 35 31 26 23 21 19 14
14 9 24 42 50 54 54 65 67 66 72 77 78 74 70 67 62 63 59 57 59 59 56 54 53 50 48 46 45 46 47 49 48 46 42 40 38 32 28 26 23 18 14 13
56 62 57 76 71 76 64 57 61 70 66 62 67 65 63 63 65 61 58 55 53 53 53 52 51 49 47 46 48 50 48 45 44 40 39 37 32 29 28 22 17 15 17 18
84 78 81 89 84 85 84 88 92 89 78 71 68 66 65 64 60 55 54 53 48 47 47 47 48 49 49 51 53 52 51 46 43 41 39 35 33 31 26 23 22 20 20 21
72 64 63 63 80 83 80 82 85 83 80 81 76 71 63 56 53 53 49 44 45 46 44 44 46 49 53 54 54 53 49 46 44 41 38 36 33 30 27 24 22 21 22 25
66 65 69 74 81 86 88 86 85 85 85 83 75 62 57 53 49 47 40 38 38 37 35 40 46 53 54 54 52 51 50 48 44 42 39 35 31 28 27 25 23 25 27 31
69 73 76 76 80 75 79 75 70 66 68 65 64 55 55 53 49 40 34 34 35 37 42 47 51 53 53 51 51 51 48 44 42 39 37 33 29 29 28 27 30 30 31 33
53 59 63 68 72 76 76 77 70 61 57 54 53 55 51 45 40 34 35 39 44 49 54 55 55 53 52 53 53 51 49 47 44 39 35 34 33 31 31 34 33 33 35 38
34 41 44 48 51 55 57 53 51 48 45 43 44 48 50 47 42 42 44 47 49 49 52 56 58 57 55 54 53 50 47 43 39 37 36 35 35 35 37 39 38 38 39 41
29 33 36 40 37 38 37 35 35 37 37 40 43 44 43 42 44 46 51 54 52 51 52 54 55 56 56 55 52 49 46 42 40 38 37 36 38 41 43 42 41 41 42 43
32 30 29 33 29 31 32 31 33 33 35 37 38 39 42 47 51 53 52 49 51 55 57 58 58 57 54 52 51 48 45 42 41 42 42 43 44 44 43 44 45 44 44 44
29 29 25 25 27 29 32 31 27 27 32 36 38 43 49 51 54 59 61 58 59 59 59 58 58 59 57 56 52 48 46 46 45 44 44 45 45 45 46 46 46 47 47 46
31 31 28 26 28 34 34 29 31 31 34 37 39 43 49 54 56 56 53 52 57 60 61 59 61 62 60 57 53 51 49 49 47 46 46 47 48 49 50 49 48 47 48 48
36 34 30 28 31 28 28 32 36 38 40 45 49 51 52 53 52 49 51 52 56 61 62 63 65 65 63 58 55 53 51 49 47 47 49 51 50 51 51 52 51 49 49 49
45 38 33 28 29 34 35 40 39 38 45 50 54 56 56 55 55 54 54 57 60 63 65 67 69 67 63 60 57 54 52 50 51 52 53 54 54 55 55 54 53 51 51 50
56 50 37 35 38 41 42 45 46 44 45 50 51 52 54 57 58 58 61 62 65 64 65 68 69 67 64 62 60 57 55 55 56 56 56 58 59 59 57 55 54 53 53 53
Wind_Direction_850mb
272 209 193 176 179 200 210 208 205 176 201 225 234 220 201 246 275 295 308 309 315 317 316 315 303 287 274 268 266 268 270 272 271 269 267 264 261 258 255 252 249 246 251 260
221 318 98 224 217 207 219 228 256 240 256 218 243 260 266 269 289 297 306 310 314 309 309 318 312 304 295 278 267 265 266 265 265 265 263 259 254 251 249 244 239 237 228 229
242 353 22 278 210 196 188 187 223 231 242 211 226 238 250 267 273 293 298 302 307 314 312 316 313 305 303 291 270 260 258 259 259 258 255 251 246 243 240 237 233 222 216 228
173 50 256 258 335 198 198 203 210 215 203 212 230 249 268 263 272 278 274 276 303 301 298 305 303 319 299 283 271 257 251 250 252 252 249 245 242 238 234 227 214 206 245 242
156 196 300 284 199 164 172 241 221 217 234 238 248 264 266 257 261 249 274 291 300 299 287 298 293 300 305 281 267 253 247 246 247 247 245 242 236 230 224 222 239 226 219 249
110 152 218 236 214 160 98 261 237 208 224 227 164 216 254 262 244 248 271 279 292 296 286 293 289 286 285 266 252 243 239 241 244 247 245 240 231 222 230 228 222 207 210 222
169 210 281 236 192 143 138 235 234 223 230 212 193 233 242 224 244 256 274 286 288 284 282 286 284 278 271 257 244 238 237 240 242 240 233 229 230 227 213 207 211 212 216 229
95 83 261 172 135 171 198 187 210 215 226 234 242 244 248 253 248 273 290 283 279 280 282 281 278 272 261 247 237 233 234 236 235 231 232 225 217 209 199 199 205 215 223 223
187 211 189 184 200 211 229 221 225 235 239 246 257 254 263 263 280 292 287 272 274 277 276 276 273 266 255 242 232 230 229 229 229 224 215 208 203 200 199 205 213 214 217 229
99 242 212 207 214 226 232 240 249 255 263 269 263 264 281 291 290 286 276 268 278 272 271 269 265 255 244 236 232 229 226 227 217 207 201 197 196 201 208 213 213 216 225 231
261 272 341 252 232 233 235 245 251 256 267 269 277 287 286 289 285 281 269 281 275 270 268 264 257 248 240 235 231 225 222 212 203 197 195 195 198 207 208 208 211 221 232 235
226 222 213 246 250 247 243 249 255 265 271 274 278 281 283 284 283 264 275 279 273 268 261 255 247 240 235 230 225 220 208 200 196 193 192 196 203 201 201 206 218 226 229 230
236 213 251 272 280 274 270 271 273 276 278 278 280 280 278 277 266 270 275 274 272 265 255 246 239 233 230 223 214 205 201 195 192 193 196 200 201 204 210 212 221 232 248 258
264 266 266 265 268 274 274 282 286 285 277 271 277 275 275 267 268 269 272 276 270 257 244 237 232 228 220 210 200 195 193 194 195 196 197 199 200 205 212 220 234 241 251 262
266 263 263 271 274 275 279 283 283 281 281 278 279 276 271 270 269 270 273 271 259 244 234 229 224 216 207 197 192 190 189 192 192 194 197 199 204 209 216 224 233 243 258 272
274 275 275 267 275 279 278 277 274 278 281 282 278 273 272 266 265 268 269 258 242 236 231 222 215 204 194 190 189 189 191 192 195 198 201 205 209 214 220 229 241 254 264 273
273 273 267 266 270 276 276 277 278 278 280 279 279 272 261 258 260 263 255 240 231 227 223 212 193 188 189 189 191 190 191 192 196 201 205 209 213 221 229 237 248 257 264 271
271 273 277 275 275 275 278 278 279 278 275 274 269 259 250 250 260 255 240 225 213 198 187 181 184 187 188 190 189 192 195 199 203 205 208 214 222 230 237 244 250 257 265 272
273 273 274 274 272 271 270 271 272 271 263 259 253 247 246 248 243 231 214 202 192 187 181 180 185 187 189 189 192 195 199 203 206 209 216 223 230 238 244 249 255 263 268 272
274 272 271 270 267 267 266 264 262 259 255 249 242 234 231 225 217 208 202 198 193 190 188 188 187 187 189 194 197 201 205 209 213 218 226 232 238 244 248 253 259 264 269 273
300 294 290 285 277 264 255 247 244 246 246 242 236 231 223 213 207 203 199 196 192 192 195 195 194 194 195 198 202 206 210 214 220 228 235 241 244 247 252 256 260 265 269 273
313 308 295 286 274 263 246 239 239 235 238 235 224 213 210 207 205 204 205 204 197 197 198 197 198 199 202 205 209 213 217 222 228 232 237 243 248 251 255 258 262 266 270 273
315 314 306 291 272 262 260 261 252 242 234 227 218 213 210 211 209 206 205 200 201 203 204 202 202 204 206 211 214 219 223 229 234 239 243 248 251 254 256 259 263 266 268 272
315 319 313 296 281 272 267 266 257 245 230 220 218 215 216 211 211 214 218 213 209 207 207 207 206 209 214 218 220 225 229 235 239 242 246 250 252 255 258 262 264 265 267 270
285 293 300 299 292 290 274 257 250 243 233 222 212 211 214 215 220 221 218 214 214 215 214 210 211 214 218 222 226 230 235 239 244 247 249 252 255 258 260 262 265 267 268 269
278 279 283 290 301 292 276 264 255 246 237 227 220 216 214 215 216 216 216 218 219 218 217 216 217 219 223 227 231 235 239 243 246 250 252 255 258 260 262 263 265 267 269 271
279 274 278 291 300 295 285 274 264 253 241 232 229 226 225 223 221 220 219 219 220 221 220 220 222 226 228 232 235 239 242 246 248 252 255 257 259 261 263 265 267 267 268 270